Flag for U.S.A. Weather past 2 weeks in Corvallis, Oregon, U.S.A.

Now
73 °F

Sunny.


Feels Like: 77 °F
Forecast: 57 / 87 °F
Wind: 9 mph from Northeast

Location: Corvallis Municipal

Current Time: Aug 23, 2014 at 11:22:46 AM

Latest Report: Aug 23, 2014 at 10:55 AM


Visibility: 10 mi

Pressure: 30.11 "Hg

Humidity: 50%

Dew point: 54 °F

Location of CorvallisLocation

Historic Weather in Corvallis — Graph

°F

Corvallis temperature yesterday

Maximum temperature yesterday: 81 °F (at 2:35 PM)
Minimum temperature yesterday: 52 °F (at 6:35 AM)
Average temperature yesterday: 67 °F

Past Weeks' High & Low Weather Summary

 TemperatureHumidityPressure
High99 °F (Aug 11, 3:55 PM)94% (Aug 9, 4:55 AM)30.14 "Hg (Aug 9, 4:55 AM)
Low46 °F (Aug 21, 6:15 AM)23% (Aug 10, 5:15 PM)29.80 "Hg (Aug 18, 6:15 PM)
Average70 °F63%29.99 "Hg
* Reported Aug 8 10:15 AM — Aug 23 10:15 AM, Corvallis, Weather by CustomWeather, © 2014

Note: Actual official high and low records may vary slightly from our data, if they occured in-between our weather recording intervals... More about our weather records

Advertising

Corvallis weather history for previous 24 hours

 ConditionsComfort  
Time TempWeatherWind HumidityBarometerVisibility
10:15 AM
Aug 23
72 °FSunny.9 mph57%30.11 "Hg10 mi
9:55 AM70 °FSunny.8 mph57%30.11 "Hg10 mi
9:35 AM68 °FSunny.7 mph60%30.12 "Hg10 mi
9:15 AM66 °FSunny.6 mph64%30.13 "Hg10 mi
8:55 AM64 °FSunny.5 mph68%30.12 "Hg10 mi
8:35 AM63 °FSunny.3 mph73%30.13 "Hg10 mi
8:15 AM61 °FSunny.No wind72%30.13 "Hg9 mi
7:55 AM57 °FSunny.3 mph82%30.12 "Hg10 mi
7:35 AM55 °FSunny.No wind82%30.12 "Hg10 mi
7:15 AM54 °FClear.No wind88%30.12 "Hg10 mi
6:55 AM54 °FClear.No wind82%30.12 "Hg10 mi
6:35 AM52 °FClear.3 mph88%30.11 "Hg10 mi
6:15 AM52 °FClear.No wind88%30.11 "Hg10 mi
5:55 AM52 °FClear.No wind88%30.10 "Hg10 mi
5:35 AM52 °FClear.No wind88%30.10 "Hg10 mi
4:55 AM52 °FClear.No wind82%30.10 "Hg10 mi
4:35 AM54 °FClear.No wind82%30.09 "Hg10 mi
4:15 AM54 °FClear.3 mph82%30.09 "Hg10 mi
3:55 AM57 °FClear.No wind72%30.09 "Hg10 mi
3:35 AM55 °FClear.5 mph82%30.08 "Hg10 mi
3:15 AM55 °FClear.3 mph77%30.08 "Hg10 mi
2:55 AM55 °FClear.10 mph82%30.07 "Hg10 mi
2:35 AM55 °FClear.7 mph77%30.07 "Hg10 mi
2:15 AM55 °FClear.5 mph77%30.07 "Hg10 mi
1:55 AM55 °FClear.5 mph77%30.07 "Hg10 mi
1:35 AM57 °FClear.3 mph72%30.07 "Hg10 mi
1:15 AM57 °FClear.6 mph72%30.07 "Hg10 mi
12:55 AM57 °FClear.6 mph72%30.07 "Hg10 mi
12:35 AM59 °FClear.7 mph68%30.07 "Hg10 mi
12:15 AM59 °FClear.7 mph68%30.07 "Hg10 mi
11:55 PM
Aug 22
61 °FClear.8 mph63%30.06 "Hg10 mi
11:35 PM61 °FClear.9 mph63%30.07 "Hg10 mi
10:55 PM63 °FClear.8 mph59%30.07 "Hg10 mi
10:35 PM63 °FClear.12 mph59%30.07 "Hg10 mi
10:15 PM63 °FClear.12 mph59%30.07 "Hg10 mi
9:55 PM64 °FClear.14 mph56%30.06 "Hg10 mi
9:35 PM64 °FClear.15 mph56%30.06 "Hg10 mi
9:15 PM64 °FClear.14 mph60%30.06 "Hg10 mi
8:55 PM66 °FSunny.15 mph56%30.05 "Hg10 mi
8:35 PM66 °FSunny.15 mph56%30.03 "Hg10 mi
8:15 PM68 °FSunny.16 mph53%30.03 "Hg10 mi
7:55 PM70 °FSunny.14 mph50%30.03 "Hg10 mi
7:35 PM70 °FSunny.14 mph50%30.02 "Hg10 mi
7:15 PM73 °FSunny.14 mph44%30.02 "Hg10 mi
6:55 PM75 °FSunny.17 mph39%30.02 "Hg10 mi
6:35 PM77 °FSunny.16 mph36%30.02 "Hg10 mi
5:55 PM79 °FPassing clouds.15 mph37%30.02 "HgN/A
5:35 PM81 °FScattered clouds.14 mph37%30.01 "Hg10 mi
5:15 PM81 °FScattered clouds.14 mph37%30.02 "Hg10 mi
4:55 PM81 °FPartly sunny.12 mph39%30.01 "HgN/A
4:35 PM79 °FOvercast.10 mph45%30.02 "HgN/A
4:15 PM81 °FPartly sunny.9 mph39%30.02 "Hg10 mi
3:55 PM81 °FBroken clouds.7 mph42%30.02 "HgN/A
3:35 PM81 °FPartly sunny.No wind42%30.02 "HgN/A
3:15 PM79 °FMostly cloudy.3 mph42%30.02 "Hg10 mi
2:55 PM79 °FPartly sunny.10 mph42%30.03 "Hg10 mi
2:35 PM81 °FSunny.7 mph42%30.03 "Hg10 mi
2:15 PM79 °FSunny.9 mph42%30.03 "Hg10 mi
1:55 PM79 °FPassing clouds.6 mph42%30.03 "Hg10 mi
1:35 PM79 °FPassing clouds.9 mph45%30.03 "Hg4 mi
12:55 PM75 °FPassing clouds.5 mph47%30.05 "Hg10 mi
12:35 PM77 °FScattered clouds.6 mph44%30.05 "Hg10 mi
12:15 PM75 °FSunny.5 mph47%30.05 "Hg10 mi
11:55 AM73 °FSunny.5 mph53%30.06 "Hg10 mi
11:35 AM73 °FPassing clouds.3 mph50%30.06 "Hg10 mi
Weather by CustomWeather, © 2014

See weather overviewHow to use our weather pages